Location: Unspecified
(0.0000°N, 0.0000°E)
Time: 12:26:58
(UTC+00:00)

Envisat - Pass Details

Date: 29 March 2020
Orbit: 764 x 766 km, 98.1° (Epoch: 02 April)

Event Time Altitude Azimuth Distance (km) Brightness Sun altitude
Rises 05:08:36 0° 43° (NE) 3,216 7.0 -14.0°
Reaches altitude 10° 05:11:43 10° 64° (ENE) 2,294 6.6 -13.2°
Maximum altitude 05:14:51 17° 103° (ESE) 1,877 6.1 -12.4°
Drops below altitude 10° 05:18:00 10° 141° (SE) 2,300 6.0 -11.7°
Sets 05:21:06 0° 161° (SSE) 3,229 6.4 -10.9°
